PBO Station Position Time Series. Reference Frame : NAM14
Format Version,1.1.1
4-character ID,P405
Station name,Tri_Point_OR2006
Begin Date, 2006-07-29
End Date, 2023-06-26
Release Date, 2023-06-27
Reference position, 45.6293271242 North Latitude, -123.6437571841 East Longitude, 955.66930 meters elevation,
Date, North (mm), East (mm), Vertical (mm), North Std. Deviation (mm), East Std. Deviation (mm),              Vertical Std. Deviation (mm), Quality,
2006-07-29,0.00, 0.00, 0.00, 2.15, 1.55, 7.05, repro,
2006-07-30,0.40, 0.34, 5.85, 2.22, 1.61, 7.25, repro,
2006-07-31,0.29, 0.50, 5.76, 2.18, 1.56, 7.10, repro,
2006-08-01,1.22, -0.04, 7.58, 2.18, 1.56, 7.08, repro,
2006-08-02,-0.09, -1.15, 1.73, 2.20, 1.59, 7.25, repro,
2006-08-03,0.53, 0.28, 3.88, 2.20, 1.61, 7.33, repro,
2006-08-04,-1.74, 0.66, 6.98, 2.25, 1.63, 7.37, repro,
2006-08-05,-0.48, -0.53, 9.76, 2.27, 1.67, 7.55, repro,
2006-08-06,0.11, 0.24, 8.56, 2.21, 1.60, 7.29, repro,
2006-08-07,-0.03, -0.51, 10.35, 2.21, 1.60, 7.27, repro,
2006-08-08,-0.55, 0.70, 4.09, 2.16, 1.56, 7.05, repro,
2006-08-09,-1.01, 0.91, 5.45, 2.16, 1.56, 7.08, repro,
2006-08-10,0.35, -0.01, 3.66, 2.18, 1.56, 7.10, repro,
2006-08-11,-0.98, 1.01, 3.85, 2.18, 1.56, 7.10, repro,
2006-08-12,-0.04, 0.31, 5.86, 2.18, 1.55, 7.06, repro,
2006-08-13,0.02, 2.00, 9.81, 2.16, 1.55, 7.01, repro,
2006-08-14,-1.21, 0.69, 12.21, 2.20, 1.61, 7.20, repro,
2006-08-15,-0.61, 0.55, 3.44, 2.23, 1.58, 7.17, repro,
2006-08-16,0.37, 0.38, 11.14, 2.17, 1.56, 7.07, repro,
2006-08-17,-0.07, 0.57, 8.54, 2.22, 1.61, 7.23, repro,
2006-08-18,1.40, -0.05, 11.39, 2.26, 1.66, 7.38, repro,
2006-08-19,0.32, -0.34, 6.31, 2.17, 1.55, 7.08, repro,
2006-08-20,-0.51, 0.27, 14.39, 2.17, 1.55, 7.03, repro,
2006-08-21,0.67, 0.45, 7.43, 2.18, 1.58, 7.15, repro,
2006-08-22,0.60, 0.58, 10.06, 2.19, 1.58, 7.13, repro,
2006-08-23,-0.95, 0.81, 7.15, 2.17, 1.58, 7.11, repro,
2006-08-24,-1.02, 1.04, 5.77, 2.17, 1.57, 7.11, repro,
2006-08-25,-0.02, 0.09, 12.67, 2.23, 1.62, 7.43, repro,
2006-08-26,-0.44, 0.09, 12.25, 2.23, 1.65, 7.45, repro,
2006-08-27,0.31, -0.35, 10.12, 2.27, 1.68, 7.55, repro,
2006-08-28,0.34, 0.78, 7.52, 2.26, 1.68, 7.55, repro,
2006-08-29,-2.16, -0.43, 13.71, 2.24, 1.67, 7.51, repro,
2006-08-30,-0.27, 0.51, 5.82, 2.27, 1.67, 7.63, repro,
2006-08-31,-0.13, -0.26, 7.18, 2.25, 1.67, 7.50, repro,
2006-09-01,-0.61, -0.47, 10.74, 2.25, 1.66, 7.46, repro,
2006-09-02,-0.07, 1.17, 6.94, 2.26, 1.68, 7.54, repro,
2006-09-03,0.12, -0.58, 7.86, 2.25, 1.68, 7.52, repro,
2006-09-04,1.27, 0.08, 7.67, 2.36, 1.70, 7.81, repro,
2006-09-05,-0.07, 0.76, 3.39, 2.35, 1.69, 7.71, repro,
2006-09-06,-0.70, 0.32, 7.15, 2.24, 1.66, 7.47, repro,
2006-09-07,-0.06, 0.04, 13.59, 2.31, 1.73, 7.86, repro,
2006-09-08,0.33, -0.08, 18.24, 2.38, 1.78, 8.00, repro,
2006-09-09,-0.06, 1.38, 13.69, 2.26, 1.66, 7.47, repro,
2006-09-10,0.79, 0.27, 10.07, 2.22, 1.62, 7.32, repro,
2006-09-11,0.04, -0.03, 8.34, 2.23, 1.62, 7.30, repro,
2006-09-12,-0.25, -0.95, 3.54, 2.23, 1.63, 7.35, repro,
2006-09-13,-1.01, -1.31, 11.75, 2.21, 1.63, 7.31, repro,
2006-09-14,0.39, -1.24, 15.17, 2.37, 1.77, 7.93, repro,
2006-09-15,0.76, -0.20, 12.87, 2.24, 1.61, 7.25, repro,
2006-09-16,-0.24, -0.08, 6.23, 2.20, 1.58, 7.18, repro,
2006-09-17,-0.33, 0.54, 12.94, 2.18, 1.59, 7.17, repro,
2006-09-18,0.25, 0.70, 11.38, 2.19, 1.61, 7.26, repro,
2006-09-19,-0.72, 0.79, 11.81, 2.17, 1.58, 7.16, repro,
2006-09-20,0.15, -0.49, 6.44, 2.18, 1.58, 7.15, repro,
2006-09-21,-2.12, -1.68, 10.45, 2.23, 1.63, 7.37, repro,
2006-09-22,-1.53, -0.16, 4.55, 2.28, 1.66, 7.45, repro,
2006-09-23,-0.44, -0.03, 7.41, 2.28, 1.64, 7.33, repro,
2006-09-24,0.14, 1.03, 11.30, 2.29, 1.65, 7.37, repro,
2006-09-25,0.85, -0.20, 11.40, 2.25, 1.61, 7.29, repro,
2006-09-26,1.22, -0.11, 9.17, 2.20, 1.59, 7.18, repro,
2006-09-27,0.51, -0.62, 2.82, 2.20, 1.59, 7.18, repro,
2006-09-28,0.56, -0.23, 10.79, 2.20, 1.60, 7.19, repro,
2006-09-29,0.88, -0.93, 13.97, 2.19, 1.61, 7.20, repro,
2006-09-30,0.60, 0.03, 14.92, 2.25, 1.65, 7.51, repro,
2006-10-01,0.90, -0.97, 7.83, 2.24, 1.65, 7.48, repro,
2006-10-02,0.50, 0.48, 9.58, 2.28, 1.66, 7.39, repro,
2006-10-03,0.47, 0.18, 7.05, 2.34, 1.74, 7.84, repro,
2006-10-04,0.47, 0.38, 6.75, 2.21, 1.63, 7.32, repro,
2006-10-05,1.35, 0.50, 13.94, 2.20, 1.59, 7.19, repro,
2006-10-06,-0.54, 0.65, 5.53, 2.20, 1.60, 7.22, repro,
2006-10-07,-1.19, 1.05, -0.54, 2.33, 1.69, 7.66, repro,
2006-10-08,-0.23, -0.17, -0.58, 2.26, 1.64, 7.34, repro,
2006-10-09,-0.51, 0.59, 0.28, 2.25, 1.65, 7.36, repro,
2006-10-10,1.55, 0.75, 3.01, 2.23, 1.63, 7.43, repro,
2006-10-11,-0.69, 0.69, 6.55, 2.24, 1.64, 7.48, repro,
2006-10-12,0.53, -0.03, 11.37, 2.22, 1.61, 7.25, repro,
2006-10-13,0.10, -0.63, 10.97, 2.17, 1.57, 7.07, repro,
2006-10-14,1.16, 0.03, 9.95, 2.23, 1.65, 7.48, repro,
2006-10-15,-1.66, 0.22, 17.76, 2.31, 1.74, 7.73, repro,
2006-10-16,0.34, 0.26, 8.12, 2.19, 1.61, 7.34, repro,
2006-10-17,0.39, -0.11, 8.02, 2.33, 1.67, 7.81, repro,
2006-10-18,-0.28, 0.87, 5.60, 2.20, 1.60, 7.30, repro,
2006-10-19,0.06, 1.49, 0.54, 2.38, 1.69, 7.80, repro,
2006-10-20,-0.15, 0.36, 6.97, 2.64, 1.97, 9.33, repro,
2006-10-21,-0.89, 0.02, 5.32, 2.53, 1.86, 8.56, repro,
2006-10-22,-0.29, 0.11, 1.21, 2.30, 1.65, 7.68, repro,
2006-10-23,-0.62, -1.48, 2.94, 2.44, 1.79, 8.08, repro,
2006-10-24,-0.95, -0.57, 0.47, 2.39, 1.67, 7.79, repro,
2006-10-25,-1.59, -0.76, 6.88, 2.44, 1.73, 7.97, repro,
2006-10-26,0.10, 0.62, -3.43, 2.31, 1.76, 7.78, repro,
2006-10-27,0.45, 0.23, -2.36, 2.24, 1.67, 7.45, repro,
2006-10-28,-2.29, -0.01, -0.62, 2.54, 1.86, 8.46, repro,
2006-10-29,-0.85, 0.27, -3.56, 2.17, 1.60, 7.26, repro,
2006-10-30,-1.23, -0.10, 5.51, 2.14, 1.57, 7.08, repro,
2006-10-31,0.52, 0.48, 5.61, 2.28, 1.65, 7.62, repro,
2006-11-01,0.76, -0.40, 4.90, 2.35, 1.71, 7.91, repro,
2006-11-02,0.06, -1.53, 8.13, 2.18, 1.59, 7.28, repro,
2006-11-03,-1.04, 2.08, 12.02, 2.21, 1.64, 7.40, repro,
2006-11-04,-0.88, 0.70, 1.97, 2.26, 1.65, 7.45, repro,
2006-11-05,-1.21, 0.73, 4.03, 2.36, 1.72, 7.72, repro,
2006-11-06,-1.31, 0.46, 1.91, 2.12, 1.57, 7.11, repro,
2006-11-07,-1.89, 0.72, 4.36, 2.33, 1.71, 7.62, repro,
2006-11-08,-1.12, 0.16, 1.63, 2.33, 1.67, 7.56, repro,
2006-11-09,-1.21, 0.33, 1.61, 2.34, 1.72, 7.68, repro,
2006-11-10,-0.99, -0.11, -1.19, 2.23, 1.59, 7.20, repro,
2006-11-11,-1.25, -0.41, 7.17, 2.28, 1.64, 7.43, repro,
2006-11-12,-1.02, 0.41, 3.74, 2.33, 1.71, 7.57, repro,
2006-11-13,0.64, -1.04, 11.24, 2.30, 1.65, 7.33, repro,
2006-11-14,-1.39, -0.53, 1.20, 2.16, 1.58, 7.13, repro,
2006-11-15,-0.95, -0.46, -0.66, 2.13, 1.57, 7.11, repro,
2006-11-16,-2.00, -0.60, 2.53, 2.14, 1.57, 7.12, repro,
2006-11-17,0.72, 0.19, -1.32, 2.11, 1.57, 7.05, repro,
2006-11-18,0.26, 0.11, -8.79, 2.13, 1.57, 7.06, repro,
2006-11-19,-1.85, -0.66, -3.81, 2.20, 1.64, 7.29, repro,
2006-11-20,-2.21, 0.33, -4.83, 2.12, 1.57, 7.05, repro,
2006-11-21,-1.93, -0.26, -4.75, 2.14, 1.58, 7.11, repro,
2006-11-22,-1.67, 0.71, 2.13, 2.14, 1.59, 7.15, repro,
2006-11-23,-2.84, -0.25, 0.29, 2.18, 1.62, 7.31, repro,
2006-11-24,-0.68, -0.87, -4.88, 2.18, 1.63, 7.29, repro,
2006-11-25,-0.57, -0.34, 0.26, 2.17, 1.59, 7.13, repro,
2006-11-26,-1.02, 0.36, 1.81, 2.22, 1.67, 7.38, repro,
2006-11-27,-0.98, 0.47, -0.07, 2.18, 1.60, 7.19, repro,
2006-11-28,-0.82, 1.07, -2.70, 2.13, 1.58, 7.11, repro,
2006-11-29,-1.16, 1.29, -0.62, 2.14, 1.58, 7.08, repro,
2006-11-30,0.05, 1.46, -3.99, 2.15, 1.59, 7.14, repro,
2006-12-01,-0.75, 1.50, -13.98, 2.12, 1.58, 7.04, repro,
2006-12-02,-1.09, 1.49, -11.02, 2.17, 1.60, 7.17, repro,
2006-12-03,-2.26, 1.22, -9.21, 2.18, 1.60, 7.20, repro,
2006-12-04,-2.15, 0.18, -7.06, 2.16, 1.59, 7.09, repro,
2006-12-05,-2.14, 1.18, -12.03, 2.18, 1.63, 7.25, repro,
2006-12-06,-0.39, 0.21, -6.88, 2.24, 1.70, 7.49, repro,
2006-12-07,-1.70, 0.83, -7.95, 2.17, 1.65, 7.30, repro,
2006-12-08,-2.79, 0.86, -3.14, 2.16, 1.64, 7.30, repro,
2006-12-09,-0.93, -0.03, -7.62, 2.25, 1.73, 7.59, repro,
2006-12-10,-1.33, -0.07, -1.61, 2.19, 1.63, 7.21, repro,
2006-12-11,-0.53, 0.56, -5.67, 2.15, 1.60, 7.12, repro,
2006-12-12,-0.48, 1.36, -10.23, 2.18, 1.65, 7.27, repro,
2006-12-13,-1.47, -0.30, -7.80, 2.13, 1.62, 7.22, repro,
2006-12-14,-1.32, -0.82, -2.87, 2.18, 1.64, 7.27, repro,
2006-12-15,5.76, 0.05, -17.92, 7.81, 7.01, 24.81, repro,
2007-05-04,-3.58, 3.83, -11.57, 4.94, 3.15, 15.11, repro,
2007-05-05,-0.05, 1.71, -10.83, 2.18, 1.58, 7.08, repro,
2007-05-06,-1.20, 2.64, -15.09, 2.13, 1.53, 6.86, repro,
2007-05-07,-1.55, 1.77, -13.32, 2.14, 1.53, 6.87, repro,
2007-05-08,0.12, 0.87, -6.81, 2.21, 1.55, 7.06, repro,
2007-05-09,-1.54, 0.76, -6.43, 2.16, 1.52, 6.88, repro,
2007-05-10,0.35, 0.75, -15.82, 2.23, 1.59, 7.25, repro,
2007-05-11,1.07, 0.87, -10.76, 2.22, 1.59, 7.25, repro,
2007-05-12,-0.15, 2.09, -7.13, 2.14, 1.53, 6.90, repro,
2007-05-13,-0.73, 2.33, -11.09, 2.20, 1.58, 7.05, repro,
2007-05-14,1.16, 1.86, -12.08, 2.19, 1.56, 7.05, repro,
2007-05-15,-0.76, 0.80, -8.69, 2.17, 1.53, 6.91, repro,
2007-05-16,0.96, 1.44, -9.39, 2.15, 1.53, 6.91, repro,
2007-05-17,-0.51, 0.54, -6.49, 2.17, 1.56, 7.04, repro,
2007-05-18,0.10, 1.09, -8.94, 2.23, 1.61, 7.21, repro,
2007-05-19,-0.05, 1.62, -0.57, 2.21, 1.58, 7.09, repro,
2007-05-20,-1.93, 0.82, -6.81, 2.27, 1.62, 7.25, repro,
2007-05-21,0.55, 1.20, -5.76, 2.18, 1.57, 7.03, repro,
2007-05-22,-0.65, 1.31, -9.12, 2.16, 1.55, 6.92, repro,
2007-05-23,0.52, 1.98, -8.14, 2.17, 1.55, 6.98, repro,
2007-05-24,-0.21, 2.35, -6.92, 2.24, 1.60, 7.14, repro,
2007-05-25,-0.01, 1.02, -7.80, 2.17, 1.53, 6.95, repro,
2007-05-26,0.15, 1.71, -7.69, 2.22, 1.59, 7.10, repro,
2007-05-27,-1.30, 1.79, -4.45, 2.16, 1.53, 6.90, repro,
2007-05-28,-0.57, 1.90, -9.06, 2.15, 1.53, 6.85, repro,
2007-05-29,0.64, 1.02, -5.24, 2.16, 1.53, 6.87, repro,
2007-05-30,0.78, 0.75, -5.40, 2.21, 1.55, 6.97, repro,
2007-05-31,1.28, 1.49, -5.46, 2.21, 1.58, 7.10, repro,
2007-06-01,-0.42, 1.59, -5.92, 2.14, 1.53, 6.83, repro,
2007-06-02,0.74, 0.57, -7.68, 2.15, 1.53, 6.84, repro,
2007-06-03,0.36, 2.34, -9.74, 2.19, 1.57, 7.07, repro,
2007-06-04,-0.76, 0.85, -2.57, 2.26, 1.65, 7.23, repro,
2007-06-05,0.84, 0.98, -4.36, 2.21, 1.55, 7.08, repro,
2007-06-06,-0.04, 0.59, 1.48, 2.15, 1.54, 6.92, repro,
2007-06-07,0.52, 0.83, 1.19, 2.14, 1.53, 6.82, repro,
2007-06-08,-0.33, 1.20, -4.42, 2.14, 1.53, 6.83, repro,
2007-06-09,0.19, 1.62, -6.87, 2.16, 1.56, 6.95, repro,
2007-06-10,-0.39, 1.68, -7.38, 2.14, 1.53, 6.83, repro,
2007-06-11,0.72, 0.97, -6.97, 2.19, 1.62, 7.16, repro,
2007-06-12,-0.14, 1.20, -9.71, 2.19, 1.62, 7.15, repro,
2007-06-13,-0.56, 2.19, -9.16, 2.20, 1.58, 7.00, repro,
2007-06-14,-0.13, 1.46, -12.30, 2.21, 1.57, 7.00, repro,
2007-06-15,0.50, 0.38, -3.14, 2.15, 1.54, 6.87, repro,
2007-06-16,-0.05, 0.76, -6.62, 2.14, 1.53, 6.82, repro,
2007-06-17,-0.08, 1.15, -5.83, 2.13, 1.54, 6.87, repro,
2007-06-18,-0.14, 0.74, -1.39, 2.13, 1.53, 6.84, repro,
2007-06-19,-0.19, 0.73, -5.35, 2.15, 1.53, 6.85, repro,
2007-06-20,-0.19, 0.35, -7.05, 2.16, 1.53, 6.85, repro,
2007-06-21,0.88, 0.37, -3.95, 2.15, 1.53, 6.85, repro,
2007-06-22,1.51, -0.14, -4.63, 2.16, 1.54, 6.90, repro,
2007-06-23,-0.76, -0.61, -6.27, 2.14, 1.54, 6.87, repro,
2007-06-24,-0.34, 0.77, -4.20, 2.18, 1.59, 7.08, repro,
2007-06-25,0.61, -0.10, -6.77, 2.14, 1.52, 6.82, repro,
2007-06-26,1.05, -1.19, -9.15, 2.16, 1.53, 6.86, repro,
2007-06-27,0.97, -0.89, -5.58, 2.21, 1.56, 7.00, repro,
2007-06-28,-0.84, -1.62, -10.66, 2.15, 1.54, 6.93, repro,
2007-06-29,-2.15, -1.50, -1.20, 2.14, 1.55, 6.92, repro,
2007-06-30,-0.39, -0.85, -0.87, 2.12, 1.53, 6.81, repro,
2007-07-01,-0.64, -2.27, 2.17, 2.15, 1.52, 6.84, repro,
2007-07-02,0.73, -0.66, 5.21, 2.16, 1.53, 6.88, repro,
2007-07-03,0.14, -0.93, -4.30, 2.14, 1.54, 6.91, repro,
2007-07-04,0.75, -0.82, -5.41, 2.14, 1.54, 6.89, repro,
2007-07-05,-0.17, -0.76, -5.09, 2.14, 1.54, 6.84, repro,
2007-07-06,1.37, -0.98, -3.68, 2.13, 1.53, 6.82, repro,
2007-07-07,-0.45, -1.15, -2.69, 2.17, 1.53, 6.89, repro,
2007-07-08,-0.05, -1.78, 5.83, 2.16, 1.52, 6.84, repro,
2007-07-09,-1.88, -2.10, 5.74, 2.14, 1.54, 6.90, repro,
2007-07-10,0.18, -1.81, 6.11, 2.15, 1.54, 6.90, repro,
2007-07-11,0.79, -2.22, 2.82, 2.13, 1.54, 6.83, repro,
2007-07-12,-0.73, -1.18, 0.05, 2.16, 1.53, 6.89, repro,
2007-07-13,-0.88, -0.44, 7.33, 2.31, 1.68, 7.56, repro,
2007-07-14,0.07, -3.57, 6.32, 2.19, 1.59, 7.12, repro,
2007-07-15,0.43, -1.61, 3.03, 2.16, 1.55, 6.95, repro,
2007-07-16,-1.98, -2.60, 10.99, 2.14, 1.54, 6.86, repro,
2007-07-17,-0.05, -2.19, 10.08, 2.13, 1.53, 6.81, repro,
2007-07-18,-0.85, -2.58, 4.42, 2.14, 1.53, 6.80, repro,
2007-07-19,-1.41, -1.46, 7.28, 2.15, 1.53, 6.86, repro,
2007-07-20,0.47, -2.21, 4.72, 2.15, 1.54, 6.91, repro,
2007-07-21,-2.33, -1.94, 9.35, 2.19, 1.60, 7.11, repro,
2007-07-22,-0.61, 0.53, -2.77, 2.14, 1.54, 6.87, repro,
2007-07-23,-1.09, -1.90, 9.12, 2.17, 1.58, 7.03, repro,
2007-07-24,-0.77, -1.64, 5.37, 2.14, 1.53, 6.83, repro,
2007-07-25,0.16, -1.60, 1.23, 2.19, 1.59, 7.09, repro,
2007-07-26,-0.33, -2.25, 2.80, 2.16, 1.54, 6.92, repro,
2007-07-27,0.05, -1.61, 0.75, 2.14, 1.53, 6.84, repro,
2007-07-28,0.35, -2.01, -1.12, 2.17, 1.59, 7.02, repro,
2007-07-29,-1.21, -1.84, 6.88, 2.17, 1.59, 7.02, repro,
2007-07-30,-0.77, -2.22, 1.57, 2.14, 1.52, 6.83, repro,
2007-07-31,-0.29, -2.07, 0.94, 2.16, 1.54, 6.94, repro,
2007-08-01,-1.12, -0.93, 5.90, 2.16, 1.54, 6.95, repro,
2007-08-02,-1.57, -1.54, 7.50, 2.13, 1.53, 6.82, repro,
2007-08-03,1.06, -1.61, 5.65, 2.14, 1.52, 6.81, repro,
2007-08-04,0.05, -1.92, 8.00, 2.12, 1.52, 6.75, repro,
2007-08-05,-0.61, -2.05, 9.33, 2.16, 1.54, 6.92, repro,
2007-08-06,-0.74, -2.95, 11.85, 2.20, 1.58, 7.05, repro,
2007-08-07,-2.09, -2.30, 9.03, 2.19, 1.57, 6.99, repro,
2007-08-08,-0.79, 0.40, 4.06, 2.13, 1.52, 6.81, repro,
2007-08-09,-0.39, -1.99, 5.67, 2.13, 1.52, 6.80, repro,
2007-08-10,-0.34, -2.08, 6.58, 2.15, 1.52, 6.85, repro,
2007-08-11,-0.64, -2.32, 6.44, 2.15, 1.53, 6.88, repro,
2007-08-12,0.25, -2.55, 5.03, 2.15, 1.53, 6.86, repro,
2007-08-13,0.23, -3.15, 6.37, 2.14, 1.52, 6.84, repro,
2007-08-14,1.45, -2.75, 2.40, 2.28, 1.65, 7.31, repro,
2007-08-15,0.18, -2.14, 6.81, 2.29, 1.65, 7.35, repro,
2007-08-16,-0.73, -2.54, 9.45, 2.24, 1.59, 7.11, repro,
2007-08-17,0.71, -2.75, 4.86, 2.25, 1.60, 7.13, repro,
2007-08-18,-0.92, -2.84, 10.59, 2.30, 1.63, 7.33, repro,
2007-08-19,-0.08, -2.71, 13.22, 2.28, 1.63, 7.30, repro,
2007-08-20,-0.27, -2.73, 6.34, 2.24, 1.58, 7.10, repro,
2007-08-21,0.46, -0.86, 10.86, 2.24, 1.58, 7.10, repro,
2007-08-22,-0.51, -2.45, 7.69, 2.24, 1.57, 7.07, repro,
2007-08-23,0.75, -3.33, 10.47, 2.21, 1.54, 6.95, repro,
2007-08-24,-0.08, -2.78, 8.39, 2.31, 1.63, 7.30, repro,
2007-08-25,1.21, -1.84, 3.50, 2.25, 1.61, 7.22, repro,
2007-08-26,1.07, -2.46, 5.54, 2.29, 1.65, 7.36, repro,
2007-08-27,-0.42, -1.58, 3.71, 2.29, 1.64, 7.35, repro,
2007-08-28,-0.53, -2.66, 6.20, 2.23, 1.60, 7.13, repro,
2007-08-29,0.76, -2.38, 4.77, 2.26, 1.60, 7.16, repro,
2007-08-30,-0.47, -2.04, 5.85, 2.26, 1.61, 7.23, repro,
2007-08-31,-0.79, -1.82, 8.56, 2.26, 1.62, 7.23, repro,
2007-09-01,-0.12, -3.45, 8.14, 2.26, 1.61, 7.21, repro,
2007-09-02,0.77, -2.46, 9.13, 2.23, 1.59, 7.09, repro,
2007-09-03,-1.80, -3.14, 14.42, 2.30, 1.66, 7.38, repro,
2007-09-04,1.53, -2.94, 13.00, 2.29, 1.62, 7.31, repro,
2007-09-05,-0.48, -2.43, 8.47, 2.28, 1.66, 7.40, repro,
2007-09-06,-0.80, -2.82, 9.36, 2.28, 1.62, 7.26, repro,
2007-09-07,-0.50, -1.84, 11.49, 2.28, 1.65, 7.39, repro,
2007-09-08,-0.74, -3.79, 1.62, 2.33, 1.68, 7.51, repro,
2007-09-09,0.20, -2.48, 4.03, 2.34, 1.68, 7.51, repro,
2007-09-10,0.10, -2.25, 9.62, 2.30, 1.64, 7.38, repro,
2007-09-11,-0.23, -3.32, 6.85, 2.31, 1.66, 7.47, repro,
2007-09-12,0.44, -3.34, 5.87, 2.32, 1.66, 7.49, repro,
2007-09-13,-0.04, -3.03, 6.47, 2.30, 1.64, 7.40, repro,
2007-09-14,0.51, -3.15, 6.96, 2.31, 1.64, 7.41, repro,
2007-09-15,-1.85, -2.96, 10.29, 2.31, 1.62, 7.37, repro,
2007-09-16,-1.24, -3.08, 11.89, 2.27, 1.62, 7.26, repro,
2007-09-17,-1.33, -1.96, 12.99, 2.32, 1.66, 7.53, repro,
2007-09-18,-0.62, -2.74, 7.98, 2.20, 1.61, 7.16, repro,
2007-09-19,-0.42, -3.09, 11.03, 2.16, 1.54, 6.94, repro,
2007-09-20,-1.10, -3.84, 6.85, 2.18, 1.55, 7.01, repro,
2007-09-21,0.18, -1.60, 7.99, 2.24, 1.57, 7.15, repro,
2007-09-22,-0.38, -3.11, 10.66, 2.23, 1.57, 7.09, repro,
2007-09-23,1.68, -1.75, 11.41, 2.28, 1.59, 7.18, repro,
2007-09-24,-0.13, -1.22, 9.27, 2.33, 1.62, 7.38, repro,
2007-09-25,-0.54, -1.37, 3.09, 2.25, 1.58, 7.19, repro,
2007-09-26,0.84, -2.30, 13.13, 2.34, 1.59, 7.22, repro,
2007-09-27,-1.46, -2.39, 11.17, 2.25, 1.57, 7.18, repro,
2007-09-28,-0.30, -1.80, 14.90, 2.22, 1.58, 7.09, repro,
2007-09-29,-0.19, -1.28, 8.87, 2.27, 1.63, 7.22, repro,
2007-09-30,-1.21, -2.17, 4.00, 2.19, 1.58, 7.06, repro,
2007-10-01,-1.92, -2.25, 11.13, 2.31, 1.64, 7.37, repro,
2007-10-02,-0.23, -0.96, 3.73, 2.31, 1.66, 7.43, repro,
2007-10-03,0.23, -1.32, 14.40, 2.26, 1.60, 7.26, repro,
2007-10-04,-0.97, -1.55, 6.11, 2.43, 1.70, 7.75, repro,
2007-10-05,-0.01, -2.22, 9.18, 2.32, 1.69, 7.54, repro,
2007-10-06,-0.20, -1.36, 0.90, 2.25, 1.64, 7.25, repro,
2007-10-07,-0.99, 0.13, -2.81, 2.32, 1.64, 7.34, repro,
2007-10-08,-0.94, -0.97, -0.87, 2.53, 1.74, 7.95, repro,
2007-10-09,-0.39, -0.83, 7.65, 2.49, 1.85, 8.12, repro,
2007-10-10,0.22, -1.24, 3.01, 2.42, 1.69, 7.69, repro,
2007-10-11,0.01, -1.55, 5.91, 2.32, 1.70, 7.47, repro,
2007-10-12,-0.23, -1.53, 8.66, 2.37, 1.75, 7.72, repro,
2007-10-13,-0.78, -1.23, 9.44, 2.21, 1.57, 7.03, repro,
2007-10-14,-0.69, -1.72, 4.97, 2.26, 1.64, 7.32, repro,
2007-10-15,-1.24, -2.15, 7.38, 2.20, 1.57, 7.05, repro,
2007-10-16,-2.38, -3.11, 11.74, 2.20, 1.57, 7.08, repro,
2007-10-17,-1.20, -2.23, 11.24, 2.22, 1.61, 7.20, repro,
2007-10-18,-0.05, -3.15, 3.78, 2.21, 1.59, 7.11, repro,
2007-10-19,-2.37, -4.13, 7.82, 2.22, 1.58, 7.10, repro,
2007-10-20,-2.12, -1.85, 7.56, 2.21, 1.55, 7.09, repro,
2007-10-21,-1.54, -0.78, 0.76, 2.20, 1.58, 7.11, repro,
2007-10-22,0.59, -1.27, 2.72, 2.19, 1.56, 7.09, repro,
2007-10-23,-1.50, -1.67, -0.23, 2.30, 1.66, 7.43, repro,
2007-10-24,-1.35, -0.48, 0.92, 2.31, 1.67, 7.48, repro,
2007-10-25,-1.95, -2.11, -0.96, 2.21, 1.57, 7.05, repro,
2007-10-26,-0.38, -0.89, -1.04, 2.24, 1.62, 7.25, repro,
2007-10-27,-1.92, -2.19, -0.27, 2.23, 1.61, 7.23, repro,
2007-10-28,-1.65, -1.97, -0.35, 2.19, 1.58, 7.06, repro,
2007-10-29,-2.08, -1.59, -1.17, 2.19, 1.58, 7.08, repro,
2007-10-30,-1.28, -2.22, -1.06, 2.26, 1.62, 7.25, repro,
2007-10-31,-2.16, -1.50, 0.93, 2.20, 1.58, 7.08, repro,
2007-11-01,-2.00, -1.43, -0.46, 2.15, 1.54, 6.87, repro,
2007-11-02,-1.13, -2.22, -3.36, 2.15, 1.54, 6.89, repro,
2007-11-03,-2.77, -1.48, 1.33, 2.15, 1.55, 6.90, repro,
2007-11-04,-1.18, -1.46, 1.15, 2.15, 1.56, 6.93, repro,
2007-11-05,-0.50, -2.21, -2.31, 2.15, 1.55, 6.91, repro,
2007-11-06,-1.39, -2.14, -4.52, 2.23, 1.63, 7.32, repro,
2007-11-07,-0.45, -2.62, -4.15, 2.16, 1.54, 6.90, repro,
2007-11-08,-0.87, -1.99, -1.85, 2.20, 1.59, 7.09, repro,
2007-11-09,-4.91, -1.47, 8.78, 2.32, 1.65, 7.56, repro,
2007-11-10,-1.82, -2.95, -1.12, 2.16, 1.55, 6.96, repro,
2007-11-11,-0.36, -3.18, 2.00, 2.14, 1.54, 6.89, repro,
2007-11-12,-0.82, -2.85, -3.39, 2.16, 1.54, 6.94, repro,
2007-11-13,-0.69, -2.52, -0.54, 2.16, 1.54, 6.90, repro,
2007-11-14,-1.36, -2.29, 2.04, 2.20, 1.58, 7.10, repro,
2007-11-15,-3.58, -2.96, 2.90, 2.18, 1.57, 7.02, repro,
2007-11-16,-2.73, -3.98, 1.03, 2.17, 1.57, 7.03, repro,
2007-11-17,-1.45, -2.25, -0.48, 2.26, 1.70, 7.31, repro,
2007-11-18,-1.36, -3.22, 0.22, 2.15, 1.54, 6.86, repro,
2007-11-19,-1.67, -2.59, -0.56, 2.16, 1.55, 6.91, repro,
2007-11-20,-1.96, -1.80, -5.41, 2.16, 1.60, 7.06, repro,
2007-11-21,-1.49, -1.70, -3.36, 2.20, 1.64, 7.25, repro,
2007-11-22,-0.20, -2.38, -1.61, 2.15, 1.56, 6.95, repro,
2007-11-23,-0.99, -2.57, -4.36, 2.22, 1.66, 7.39, repro,
2007-11-24,-1.00, -2.91, -5.11, 2.17, 1.58, 7.02, repro,
2007-11-25,-1.74, -2.86, -2.06, 2.25, 1.69, 7.32, repro,
2007-11-26,-2.64, -3.26, -8.38, 2.24, 1.67, 7.35, repro,
2007-11-27,-1.15, -1.23, -3.90, 2.23, 1.64, 7.22, repro,
2007-11-28,-1.97, -1.46, -14.00, 2.28, 1.67, 7.31, repro,
2007-11-29,-2.59, -2.31, -11.64, 2.23, 1.66, 7.23, repro,
2007-11-30,-1.34, -2.14, -8.68, 2.28, 1.67, 7.29, repro,
2007-12-01,-0.49, -2.13, 3.61, 2.29, 1.73, 7.59, repro,
2007-12-02,0.11, -1.94, -1.77, 2.26, 1.73, 7.66, repro,
2007-12-03,0.24, -1.05, -6.45, 2.45, 1.78, 8.07, repro,
2007-12-04,-0.73, -2.93, -8.15, 2.30, 1.73, 7.58, repro,
2007-12-05,-0.17, -0.49, -5.02, 2.38, 1.83, 8.08, repro,
2007-12-06,-0.61, -1.09, -1.29, 2.33, 1.81, 7.85, repro,
2007-12-07,-0.30, -1.72, -5.14, 2.47, 1.92, 8.34, repro,
2007-12-08,-1.10, -0.08, -5.98, 2.39, 1.83, 7.94, repro,
2007-12-09,-0.96, -0.28, -6.29, 2.61, 2.23, 9.35, repro,
2007-12-10,-1.79, -0.80, -3.82, 2.30, 1.72, 7.43, repro,
2007-12-11,-2.89, -1.41, -4.96, 2.34, 1.81, 7.86, repro,
2007-12-12,-2.13, -1.79, -10.98, 2.34, 1.71, 7.52, repro,
2007-12-13,-1.08, -1.16, -8.10, 2.30, 1.70, 7.43, repro,
2007-12-14,-1.50, -1.17, -5.90, 2.20, 1.57, 7.00, repro,
2007-12-15,-2.04, -0.05, 2.94, 2.20, 1.57, 7.02, repro,
2007-12-16,-1.39, -1.77, -2.33, 2.28, 1.62, 7.14, repro,
2007-12-17,-2.60, -1.12, 2.46, 2.28, 1.61, 7.14, repro,
2007-12-18,-1.58, -2.29, 1.34, 2.24, 1.62, 7.24, repro,
2007-12-19,-2.96, -0.89, 0.59, 2.29, 1.70, 7.62, repro,
2007-12-20,-3.94, -1.01, 3.32, 2.20, 1.61, 7.13, repro,
2007-12-21,-1.86, -1.41, -1.74, 2.30, 1.70, 7.54, repro,
2007-12-22,-2.39, -0.81, -2.52, 2.29, 1.68, 7.42, repro,
2007-12-23,-3.35, -0.46, -8.40, 2.25, 1.66, 7.36, repro,
2007-12-24,-3.75, -0.58, -5.66, 2.25, 1.66, 7.36, repro,
2007-12-25,-1.60, -0.88, -5.54, 2.27, 1.66, 7.28, repro,
2007-12-26,-2.11, -0.24, 2.91, 2.21, 1.59, 7.09, repro,
2007-12-27,-1.58, -0.55, 5.74, 2.27, 1.63, 7.32, repro,
2007-12-28,-8.79, -0.34, 18.95, 2.29, 1.63, 7.36, repro,
2007-12-29,-6.96, -0.23, 16.79, 2.27, 1.60, 7.28, repro,
2007-12-30,-1.81, -1.75, -3.65, 2.26, 1.59, 7.27, repro,
2007-12-31,-0.30, -0.40, -10.36, 2.19, 1.55, 6.99, repro,
2008-01-01,-1.62, -1.11, -9.39, 2.20, 1.56, 7.02, repro,
2008-01-02,-2.57, -0.64, -15.03, 2.20, 1.55, 6.99, repro,
2008-01-03,-1.82, -0.92, -3.83, 2.19, 1.53, 6.95, repro,
2008-01-04,1.23, -3.61, 2.99, 2.23, 1.57, 7.14, repro,
2008-01-05,-1.09, -0.75, 2.04, 2.18, 1.53, 6.91, repro,
2008-01-06,-2.30, -1.76, 15.35, 3.86, 2.54, 11.84, repro,
2008-08-17,28.60, -13.47, -44.00, 122.09, 123.78, 312.90, repro,
2008-08-18,1.14, -2.36, 21.53, 4.28, 3.02, 14.07, repro,
2008-08-19,-3.03, -1.16, -0.39, 4.53, 3.15, 14.85, repro,
2008-08-22,-12.62, 10.59, 118.51, 241.14, 138.63, 711.54, repro,
2008-11-16,-0.75, -0.08, -10.37, 3.71, 2.94, 13.25, repro,
2008-11-17,-0.83, 1.94, 7.95, 5.23, 3.59, 15.52, repro,
2009-01-02,11.76, 7.51, -70.65, 218.11, 279.16, 473.80, repro,
2009-08-12,-0.51, 0.44, 6.52, 5.52, 3.83, 16.01, repro,
2009-08-13,1.48, 1.36, -0.47, 2.25, 1.57, 7.06, repro,
2009-08-14,1.92, 1.08, -1.95, 2.27, 1.58, 7.15, repro,
2009-08-15,-0.33, 0.77, 2.44, 2.26, 1.57, 7.13, repro,
2009-08-16,0.06, 0.67, -2.84, 2.27, 1.57, 7.15, repro,
2009-08-17,-1.15, 0.40, 4.86, 2.29, 1.57, 7.14, repro,
2009-08-18,-2.11, 0.37, 8.19, 2.28, 1.57, 7.13, repro,
2009-08-19,0.42, -0.57, 10.55, 2.22, 1.55, 7.00, repro,
2009-08-20,0.57, -0.36, 4.93, 2.23, 1.56, 7.09, repro,
2009-08-21,0.60, -1.08, 1.14, 2.29, 1.60, 7.28, repro,
2009-08-22,-1.25, -1.29, 1.33, 2.47, 1.72, 7.85, repro,
2009-08-23,-1.10, -1.46, 6.33, 2.64, 1.80, 8.46, repro,
2009-08-24,0.66, -2.02, 9.94, 2.28, 1.61, 7.25, repro,
2009-08-25,-1.06, 0.10, 11.49, 2.27, 1.60, 7.19, repro,
2009-08-26,-0.07, -1.32, 4.62, 2.29, 1.61, 7.29, repro,
2009-08-27,0.51, -1.50, 2.54, 2.29, 1.60, 7.26, repro,
2009-08-28,0.15, -2.31, 3.39, 2.24, 1.56, 7.06, repro,
2009-08-29,-2.23, -1.16, 9.01, 2.22, 1.55, 7.00, repro,
2009-08-30,0.46, -1.82, 7.78, 2.24, 1.56, 7.02, repro,
2009-08-31,-0.60, -2.53, 5.59, 2.23, 1.56, 7.08, repro,
2009-09-01,-0.82, -1.58, 8.60, 2.22, 1.56, 7.06, repro,
2009-09-02,-0.63, -3.84, 7.08, 2.26, 1.61, 7.25, repro,
2009-09-03,-0.80, -2.74, 2.71, 2.22, 1.57, 7.09, repro,
2009-09-04,-1.21, -1.57, 8.24, 2.22, 1.56, 7.05, repro,
2009-09-05,-1.14, -2.54, 3.30, 2.27, 1.61, 7.27, repro,